Location: Chandolas
(44.4033°N, 4.2533°E)
Time: 02:34:05
(UTC+00:00)

Meteor 1-26 Rocket - Pass Details

Date: 15 November 2019
Orbit: 816 x 919 km, 81.3° (Epoch: 10 December)

Event Time Altitude Azimuth Distance (km) Brightness Sun altitude
Rises 05:59:23 0° 349° (N) 3,497 7.1 -7.3°
Reaches altitude 10° 06:01:52 10° 350° (N) 2,539 6.4 -6.9°
Maximum altitude 06:07:39 89° 76° (ENE) 864 4.3 -5.9°
Drops below altitude 10° 06:13:14 10° 171° (S) 2,451 7.1 -5.0°
Sets 06:15:36 0° 171° (S) 3,369 7.8 -4.6°
